WetterOnline ( https://www.wetteronline.de )

Wetter aktuell Kempten/Allgäu

Aktuelles Wetter: Kempten (705m)

6-stündlich | Neueste Meldungen
Ortszeit Temperatur Wetter
Fr, 18.10. 14:00 19.2° C bedeckt
Fr, 18.10. 8:00 10.2° C bedeckt
Fr, 18.10. 2:00 10.4° C bewölkt
Do, 17.10. 20:00 10.6° C wolkig
Do, 17.10. 14:00 17.4° C leicht bewölkt
Do, 17.10. 8:00 6.1° C bedeckt
Do, 17.10. 2:00 5.2° C wolkig
Mi, 16.10. 20:00 7.8° C wolkenlos
Ortszeit Temperatur Wetter
Fr, 18.10. 15:30 17.0° C bewölkt
Fr, 18.10. 15:20 17.0° C bewölkt
Fr, 18.10. 15:10 17.2° C wolkig
Fr, 18.10. 15:00 17.6° C wolkig
Fr, 18.10. 14:50 17.6° C wolkig
Fr, 18.10. 14:40 18.4° C bedeckt
Fr, 18.10. 14:30 17.5° C bedeckt
Fr, 18.10. 14:00 19.2° C bedeckt
Fr, 18.10. 13:30 17.9° C bedeckt
Fr, 18.10. 13:00 18.5° C bedeckt
Fr, 18.10. 12:30 17.9° C wolkig
Ortszeit Relative Feuchte Sichtweite
Fr, 18.10. 14:00 54% 50 km
Fr, 18.10. 8:00 86% 35 km
Fr, 18.10. 2:00 85% 35 km
Do, 17.10. 20:00 87% 35 km
Do, 17.10. 14:00 46% 30 km
Do, 17.10. 8:00 85% 60 km
Do, 17.10. 2:00 90% 45 km
Mi, 16.10. 20:00 85% 35 km
Ortszeit Relative Feuchte Sichtweite
Fr, 18.10. 15:30 54% 60 km
Fr, 18.10. 15:20 54% -
Fr, 18.10. 15:10 51% -
Fr, 18.10. 15:00 52% 65 km
Fr, 18.10. 14:50 52% -
Fr, 18.10. 14:40 54% -
Fr, 18.10. 14:30 60% 55 km
Fr, 18.10. 14:00 54% 50 km
Fr, 18.10. 13:30 56% 60 km
Fr, 18.10. 13:00 52% 70 km
Fr, 18.10. 12:30 52% 45 km
Ortszeit Niederschlagsmenge Niederschlagsart
Fr, 18.10. 14:00 0.0 l/m2 in 6 Std. -
Fr, 18.10. 8:00 0.1 l/m2 in 12 Std. -
Fr, 18.10. 2:00 0.1 l/m2 in 6 Std. Regen
Do, 17.10. 20:00 0.0 l/m2 in 12 Std. -
Do, 17.10. 14:00 0.0 l/m2 in 6 Std. -
Do, 17.10. 8:00 0.0 l/m2 in 12 Std. -
Do, 17.10. 2:00 0.0 l/m2 in 6 Std. -
Mi, 16.10. 20:00 0.0 l/m2 in 12 Std. -
Ortszeit Niederschlagsmenge Niederschlagsart
Fr, 18.10. 15:30 0.0 l/m2 in 1 Std. -
Fr, 18.10. 15:20 keine Meldung -
Fr, 18.10. 15:10 keine Meldung -
Fr, 18.10. 15:00 0.0 l/m2 in 1 Std. -
Fr, 18.10. 14:50 keine Meldung -
Fr, 18.10. 14:40 keine Meldung -
Fr, 18.10. 14:30 0.0 l/m2 in 1 Std. -
Fr, 18.10. 14:00 0.0 l/m2 in 1 Std. -
Fr, 18.10. 13:30 0.0 l/m2 in 1 Std. -
Fr, 18.10. 13:00 0.0 l/m2 in 1 Std. -
Fr, 18.10. 12:30 0.0 l/m2 in 1 Std. -
Ortszeit Stärke Spitze Richtung
km/h Bft. km/h Grad Sektor
Fr, 18.10. 14:00 7 2 22 290° W
Fr, 18.10. 8:00 6 1 13 140° SO
Fr, 18.10. 2:00 6 1 11 130° SO
Do, 17.10. 20:00 4 1 18 110° O
Do, 17.10. 14:00 4 1 14 340° N
Do, 17.10. 8:00 11 2 18 110° O
Do, 17.10. 2:00 9 2 15 110° O
Mi, 16.10. 20:00 2 1 24 110° O
Ortszeit Stärke Spitze Richtung
km/h Bft. km/h Grad Sektor
Fr, 18.10. 15:30 7 2 18 210° SW
Fr, 18.10. 15:20 7 2 - 210° SW
Fr, 18.10. 15:10 7 2 - 210° SW
Fr, 18.10. 15:00 7 2 25 170° S
Fr, 18.10. 14:50 7 2 - 170° S
Fr, 18.10. 14:40 4 1 - 230° SW
Fr, 18.10. 14:30 7 2 25 240° SW
Fr, 18.10. 14:00 7 2 22 290° W
Fr, 18.10. 13:30 4 1 11 300° NW
Fr, 18.10. 13:00 0 0 11 - -
Fr, 18.10. 12:30 4 1 7 90° O
Ortszeit Untergrenze Bedeckung Gattung
total tief tief mittel hoch
Fr, 18.10. 14:00 3300 m 8/8 8/8 - - -
Fr, 18.10. 8:00 2100 m 8/8 8/8 - - -
Fr, 18.10. 2:00 1800 m 7/8 7/8 - - -
Do, 17.10. 20:00 2400 m 8/8 3/8 - - -
Do, 17.10. 14:00 10500 m 3/8 0/8 - - -
Do, 17.10. 8:00 3900 m 8/8 8/8 - - -
Do, 17.10. 2:00 8700 m 8/8 0/8 - - -
Mi, 16.10. 20:00 - 0/8 0/8 - - -
Ortszeit Bedeckungsgrad in Achtel und Wolkenuntergrenze
Fr, 18.10. 15:30 4(2700m) 7(3000m) 8(4800m)
Fr, 18.10. 15:20 4(2700m) 7(3000m) 8(4800m)
Fr, 18.10. 15:10 1(1500m) 7(3000m) 8(4800m)
Fr, 18.10. 15:00 1(1500m) 8(5100m) 8(5700m)
Fr, 18.10. 14:50 1(1500m) 8(5100m) 8(5700m)
Fr, 18.10. 14:40 7(3300m) 8(3900m)
Fr, 18.10. 14:30 3(3300m) 8(4200m) 8(5100m)
Fr, 18.10. 14:00 8(3300m) 8(4200m) 8(5400m)
Fr, 18.10. 13:30 6(3300m) 8(3600m)
Fr, 18.10. 13:00 8(3900m) 8(5400m)
Fr, 18.10. 12:30 4(2400m) 7(4200m) 7(5700m)
Ortszeit Luftdruck NN (hPa) Tendenz (hPa in 3 Std.)
Fr, 18.10. 14:00 1011 - 0,7
Fr, 18.10. 8:00 1016 - 0,1
Fr, 18.10. 2:00 1017 - 0,6
Do, 17.10. 20:00 1016 + 1,2
Do, 17.10. 14:00 1014 - 1,7
Do, 17.10. 8:00 1019 + 0,1
Do, 17.10. 2:00 1019 + 0,2
Mi, 16.10. 20:00 1017 + 0,3
Ortszeit Luftdruck NN (hPa) Tendenz (hPa in 3 Std.)
Fr, 18.10. 15:30 1012 - 0,3
Fr, 18.10. 15:20 1012 keine Meldung
Fr, 18.10. 15:10 1012 keine Meldung
Fr, 18.10. 15:00 1012 - 0,7
Fr, 18.10. 14:50 1012 keine Meldung
Fr, 18.10. 14:40 1011 keine Meldung
Fr, 18.10. 14:30 1012 - 0,6
Fr, 18.10. 14:00 1011 - 0,7
Fr, 18.10. 13:30 1012 - 1,1
Fr, 18.10. 13:00 1012 - 1,4
Fr, 18.10. 12:30 1012 - 1,3
Ortszeit Schneehöhe (cm)
Fr, 18.10. 14:00 0
Fr, 18.10. 8:00 0
Fr, 18.10. 2:00 0
Do, 17.10. 20:00 0
Do, 17.10. 14:00 0
Do, 17.10. 8:00 0
Do, 17.10. 2:00 0
Mi, 16.10. 20:00 0
Ortszeit Schneehöhe (cm)
Fr, 18.10. 15:30 0
Fr, 18.10. 15:20 0
Fr, 18.10. 15:10 0
Fr, 18.10. 15:00 0
Fr, 18.10. 14:50 0
Fr, 18.10. 14:40 0
Fr, 18.10. 14:30 0
Fr, 18.10. 14:00 0
Fr, 18.10. 13:30 0
Fr, 18.10. 13:00 0
Fr, 18.10. 12:30 0
Link zu dieser Seite / Seite empfehlen

Das Wetter in ...